Regional Weather Roundup
Issued by NWS Jackson, KY

Home | Current Version | Previous Version | Graphics & Text | Print | Product List | Glossary On
Versions: 1 2 3 4 5 6 7 8 9 10 11 12 13 14 15 16 17 18 19 20 21 22 23 24 25 26 27
000
ASUS43 KJKL 261710
RWRJKL

EAST KENTUCKY HOURLY WEATHER ROUNDUP
NATIONAL WEATHER SERVICE JACKSON KY
1200 PM EST SUN FEB 26 2017

NOTE: "FAIR" INDICATES FEW OR NO CLOUDS BELOW 12,000 FEET WITH
NO SIGNIFICANT WEATHER AND/OR OBSTRUCTIONS TO VISIBILITY.

* THESE REPORTS ARE NOT UNDER NWS QUALITY CONTROL AND MAY NOT
  REPORT WEATHER SUCH AS PRECIPITATION AND FOG.

KYZ079-080-083-085-087-088-110-112-115-119-120-261800
...EASTERN KENTUCKY...

CITY           SKY/WX    TMP DP  RH WIND       PRES   REMARKS
JACKSON        SUNNY     38  16  40 VRB6      30.23S WCI  33
LONDON         SUNNY     38  12  34 CALM      30.24F
SOMERSET*      SUNNY     37  16  41 E5        30.25F WCI  34
MONTICELLO*    SUNNY     42  20  41 E8        30.26S
WILLIAMSBURG*  SUNNY     39  14  35 SE3       30.24F
MIDDLESBORO*   SUNNY     41  15  35 E5        30.25F
HARLAN APT*    SUNNY     41  16  36 CALM      30.23F
PIKE CO APT*     N/A     37  17  43 CALM      30.23S
BIG SANDY APT* SUNNY     38  17  41 W5        30.24S WCI  35
MOREHEAD APT*  SUNNY     37  16  41 VRB6      30.25F WCI  33
ASHLAND*       SUNNY     39  19  45 N3        30.23F
$$

KYZ035-036-041-042-044-050-067-078-099-261800
...CENTRAL KENTUCKY...

CITY           SKY/WX    TMP DP  RH WIND       PRES   REMARKS
FLEMING/MASON* SUNNY     37  17  46 SW3       30.24F
DANVILLE*      SUNNY     37  14  38 CALM      30.24F
LEXINGTON      SUNNY     39  11  31 VRB6      30.23F WCI  35
FRANKFORT      SUNNY     40  13  33 SE9       30.23S WCI  34
LOUISVILLE     MOSUNNY   43  14  31 S9        30.23F
LEBANON*         N/A     39  14  35 S5        30.24F
GLASGOW*       SUNNY     43  15  32 CALM      30.23F
BOWLING GREEN  SUNNY     44  17  33 MISG      30.25F
$$

KYZ091>093-OHZ055-061-077-WVZ005-015-034-035-042-261800
...SOUTHERN OHIO/WEST VIRGINIA...

CITY           SKY/WX    TMP DP  RH WIND       PRES   REMARKS
COVINGTON      SUNNY     37  15  40 S9        30.21F WCI  30
COLUMBUS       MOSUNNY   37  19  48 SW8       30.19S WCI  31
DAYTON         SUNNY     35  16  45 SW10      30.18F WCI  27
WILMINGTON     SUNNY     35  19  52 S13       30.19S WCI  26
HUNTINGTON     SUNNY     39  16  39 VRB3      30.23S
CHARLESTON     MOSUNNY   39  16  39 SW9       30.20F WCI  33
PINEVILLE*     SUNNY     39  11  32 MISG      30.23F
BECKLEY        SUNNY     35  12  38 W13G18    30.14S WCI  26
BLUEFIELD      SUNNY     32  12  43 W15G21    30.14R WCI  22
LOGAN CO APT*    N/A     37  16  41 VRB5      30.19S WCI  34
$$

VAZ002-007-008-TNZ017-027-036-066-071-261800
...SOUTHWEST VIRGINIA/EAST TENNESSEE...

CITY           SKY/WX    TMP DP  RH WIND       PRES   REMARKS
WISE*          SUNNY     36  10  35 CALM      30.19R
JONESVILLE*      N/A     39  16  38 NW5       30.26F
ABINGDON*      SUNNY     39  17  40 W7        30.21S WCI  34
BRISTOL        SUNNY     39  16  39 VRB5      30.24S
MORRISTOWN*    SUNNY     39  16  38 CALM      30.24S
SEVIERVILLE*   SUNNY     41  12  30 CALM      30.25F
KNOXVILLE      SUNNY     43  15  32 CALM      30.26S
LAFOLLETTE*    SUNNY     41  14  33 CALM      30.28S
OAK RIDGE      SUNNY     43  14  31 SE5       30.28S
CROSSVILLE     SUNNY     39  14  36 E7        30.22S WCI  34
NASHVILLE      MOSUNNY   45  17  32 VRB3      30.26F
$$

...KEY TO REMARKS...
VSB - VISIBILITY IN MILES
WCI - WIND CHILL INDEX
HX  - HEAT INDEX

$$




USA.gov is the U.S. government's official web portal to all federal, state and local government web resources and services.